Simultaneous Nadir Overpasses (SNOs) Predictions

Prediction of SNOs between METOP-A and NOAA-19 Satellite Orbit:

Table of predicted SNOs for the next 14.0 days since TLE Epoch: 11/22/2013
Index Date (METOP-A) Time (METOP-A) Lat,Lon (METOP-A) SZA (METOP-A ) Date (NOAA-19) Time (NOAA-19) Lat,Lon (NOAA-19) SZA (NOAA-19 ) Distance(km) Time Diff (sec)
1 11/26/2013 18:39:38 74.21,-105.01 95.20 11/26/2013 18:38:29 74.22,-107.33 95.25 70.15 69
2 11/26/2013 19:30:30 -73.72, 61.13 85.28 11/26/2013 19:29:25 -73.71, 61.17 85.28 1.75 65
3 11/26/2013 20:21:09 73.74,-131.49 94.75 11/26/2013 20:20:23 73.72,-131.59 94.74 3.67 46
4 11/26/2013 21:11:52 -73.70, 35.73 85.29 11/26/2013 21:11:29 -73.70, 35.68 85.28 1.76 23
5 11/26/2013 22:02:32 73.67,-157.00 94.70 11/26/2013 22:02:26 73.67,-156.97 94.69 1.13 6
6
